| time (UTC) | temp F | wind direction | speed knots | gust knots | rain 1hr in | rain 24hr in | rain mn in | humidity % | barometer mb |
| 20260504185515 | 0 | 0.0 | 0.0 | 0.00 | 0.32 | 0.32 | |||
| 20260504184515 | 0 | 0.0 | 0.0 | 0.00 | 0.32 | 0.32 | |||
| 20260504183516 | 0 | 0.0 | 0.0 | 0.00 | 0.32 | 0.32 | |||
| 20260504182738 | 0 | 0.0 | 0.0 | 0.00 | 0.32 | 0.32 | |||
| 20260504182015 | 0 | 0.0 | 0.0 | 0.00 | 0.32 | 0.32 | |||
| 20260504181018 | 0 | 0.0 | 0.0 | 0.00 | 0.32 | 0.32 | |||
| 20260504180515 | 0 | 0.0 | 0.0 | 0.00 | 0.32 | 0.32 | |||
| 20260504175535 | 0 | 0.0 | 0.0 | 0.00 | 0.32 | 0.32 | |||
| 20260504174515 | 0 | 0.0 | 0.0 | 0.00 | 0.32 | 0.32 | |||
| 20260504173618 | 0 | 0.0 | 0.0 | 0.00 | 0.32 | 0.32 | |||
| 20260504173036 | 0 | 0.0 | 0.0 | 0.00 | 0.32 | 0.32 | |||
| 20260504172015 | 0 | 0.0 | 0.0 | 0.00 | 0.32 | 0.32 | |||
| 20260504171035 | 0 | 0.0 | 0.0 | 0.32 | 0.32 | 0.32 | |||
| 20260504150516 | 62 | 93 | 14.8 | 22.6 | 0.00 | 0.00 | 0.00 | 84 | 1009.8 |
| 20260504140516 | 62 | 96 | 13.9 | 21.7 | 0.00 | 0.00 | 0.00 | 81 | 1010.3 |
| 20260504130516 | 62 | 85 | 14.8 | 21.7 | 0.00 | 0.00 | 0.00 | 82 | 1011.2 |
| 20260504110515 | 61 | 88 | 12.2 | 20.0 | 0.00 | 0.00 | 0.00 | 84 | 1012.3 |
| 20260504100515 | 64 | 123 | 2.6 | 6.1 | 0.00 | 0.00 | 0.00 | 82 | 1012.3 |
| 20260504081515 | 61 | 302 | 0.9 | 2.6 | 0.00 | 0.00 | 0.00 | 86 | 1012.7 |
| 20260504080515 | 61 | 302 | 1.7 | 4.3 | 0.00 | 0.00 | 0.00 | 86 | 1012.7 |
| 20260504050517 | 60 | 99 | 6.1 | 8.7 | 0.00 | 0.00 | 0.00 | 91 | 1011.5 |
| 20260504045517 | 60 | 112 | 3.5 | 6.1 | 0.00 | 0.00 | 0.00 | 91 | 1011.6 |
| 20260504044517 | 60 | 105 | 5.2 | 7.8 | 0.00 | 0.00 | 0.00 | 91 | 1011.6 |
| 20260504043516 | 60 | 106 | 6.1 | 9.6 | 0.00 | 0.00 | 0.00 | 91 | 1011.5 |
| 20260504042517 | 59 | 104 | 6.1 | 10.4 | 0.00 | 0.00 | 0.00 | 91 | 1011.5 |
| 20260504041516 | 59 | 98 | 4.3 | 8.7 | 0.00 | 0.00 | 0.00 | 91 | 1011.5 |
| 20260504040517 | 59 | 113 | 6.1 | 12.2 | 0.00 | 0.00 | 0.00 | 91 | 1011.5 |
| 20260504035517 | 59 | 102 | 7.8 | 12.2 | 0.00 | 0.00 | 0.00 | 91 | 1011.5 |
| 20260504034517 | 59 | 103 | 8.7 | 13.9 | 0.00 | 0.00 | 0.00 | 91 | 1011.4 |
| 20260504033517 | 59 | 95 | 8.7 | 13.0 | 0.00 | 0.00 | 0.00 | 91 | 1011.4 |
| 20260504032516 | 59 | 111 | 7.0 | 11.3 | 0.00 | 0.00 | 0.00 | 91 | 1011.5 |
| 20260504031557 | 59 | 106 | 8.7 | 13.0 | 0.00 | 0.00 | 0.00 | 91 | 1011.4 |
| 20260504030517 | 59 | 109 | 9.6 | 14.8 | 0.00 | 0.00 | 0.00 | 90 | 1011.5 |
| 20260504025516 | 59 | 108 | 8.7 | 13.9 | 0.00 | 0.00 | 0.00 | 90 | 1011.6 |
| 20260504024537 | 59 | 103 | 9.6 | 14.8 | 0.00 | 0.00 | 0.00 | 90 | 1011.6 |
| 20260504023537 | 59 | 107 | 9.6 | 14.8 | 0.00 | 0.00 | 0.00 | 90 | 1011.7 |
| 20260504022516 | 59 | 101 | 9.6 | 16.5 | 0.00 | 0.00 | 0.00 | 89 | 1011.7 |
| 20260504021516 | 59 | 100 | 10.4 | 15.6 | 0.00 | 0.00 | 0.00 | 89 | 1011.7 |
| 20260504020516 | 59 | 100 | 10.4 | 17.4 | 0.00 | 0.00 | 0.00 | 89 | 1011.9 |
| 20260504015516 | 59 | 94 | 11.3 | 17.4 | 0.00 | 0.00 | 0.00 | 89 | 1011.8 |
| 20260504014516 | 60 | 91 | 10.4 | 15.6 | 0.00 | 0.00 | 0.00 | 88 | 1012.1 |
| 20260504013516 | 59 | 96 | 10.4 | 16.5 | 0.00 | 0.00 | 0.00 | 87 | 1011.9 |
| 20260504012536 | 59 | 95 | 11.3 | 16.5 | 0.00 | 0.00 | 0.00 | 87 | 1011.9 |
| 20260504011516 | 59 | 96 | 11.3 | 20.0 | 0.00 | 0.00 | 0.00 | 86 | 1011.9 |
| 20260504010516 | 59 | 94 | 12.2 | 20.9 | 0.00 | 0.00 | 0.00 | 86 | 1011.9 |
| 20260504005516 | 59 | 95 | 12.2 | 19.1 | 0.00 | 0.00 | 0.00 | 86 | 1011.9 |
| 20260504004516 | 59 | 95 | 13.0 | 19.1 | 0.00 | 0.00 | 0.00 | 86 | 1011.8 |
| 20260504003536 | 59 | 94 | 13.0 | 20.0 | 0.00 | 0.00 | 0.00 | 86 | 1011.9 |
| 20260504002516 | 59 | 96 | 11.3 | 18.2 | 0.00 | 0.00 | 0.00 | 86 | 1012.1 |
| 20260504001516 | 59 | 93 | 10.4 | 21.7 | 0.00 | 0.00 | 0.00 | 86 | 1012.2 |
| 20260504000516 | 59 | 94 | 13.0 | 19.1 | 0.00 | 0.00 | 0.00 | 86 | 1012.2 |
| 20260503235516 | 59 | 89 | 13.9 | 20.9 | 0.00 | 0.00 | 0.00 | 87 | 1012.1 |
| 20260503234516 | 59 | 90 | 13.0 | 21.7 | 0.00 | 0.00 | 0.00 | 87 | 1012.1 |
| 20260503233516 | 59 | 87 | 14.8 | 24.3 | 0.00 | 0.00 | 0.00 | 87 | 1012.2 |
| 20260503232516 | 59 | 92 | 12.2 | 19.1 | 0.00 | 0.00 | 0.00 | 87 | 1012.4 |
| 20260503231516 | 59 | 94 | 14.8 | 20.9 | 0.00 | 0.00 | 0.00 | 87 | 1012.5 |
| 20260503230516 | 60 | 90 | 15.6 | 24.3 | 0.00 | 0.00 | 0.00 | 87 | 1012.6 |
| 20260503225516 | 60 | 89 | 13.9 | 23.5 | 0.00 | 0.00 | 0.00 | 87 | 1012.7 |
| 20260503224536 | 60 | 87 | 13.9 | 22.6 | 0.00 | 0.00 | 0.00 | 88 | 1012.7 |
| 20260503223516 | 60 | 97 | 13.0 | 20.0 | 0.00 | 0.00 | 0.00 | 88 | 1012.8 |
| 20260503222516 | 60 | 95 | 13.9 | 20.9 | 0.00 | 0.00 | 0.00 | 88 | 1012.6 |
| 20260503221516 | 59 | 95 | 12.2 | 24.3 | 0.00 | 0.00 | 0.00 | 88 | 1012.5 |
| 20260503220516 | 59 | 95 | 13.0 | 21.7 | 0.00 | 0.00 | 0.00 | 88 | 1012.7 |
| 20260503215516 | 59 | 96 | 13.9 | 24.3 | 0.00 | 0.00 | 0.00 | 88 | 1012.7 |
| 20260503214516 | 59 | 96 | 14.8 | 23.5 | 0.00 | 0.00 | 0.00 | 88 | 1012.6 |
| 20260503213536 | 59 | 95 | 13.9 | 22.6 | 0.00 | 0.00 | 0.00 | 88 | 1012.6 |
| 20260503212517 | 60 | 93 | 13.9 | 23.5 | 0.00 | 0.00 | 0.00 | 88 | 1012.6 |
| 20260503211537 | 60 | 94 | 14.8 | 22.6 | 0.00 | 0.00 | 0.00 | 86 | 1012.6 |
| 20260503210516 | 60 | 93 | 16.5 | 27.8 | 0.00 | 0.00 | 0.00 | 86 | 1012.5 |
| 20260503205517 | 60 | 98 | 15.6 | 26.1 | 0.00 | 0.00 | 0.00 | 87 | 1012.5 |
| 20260503204517 | 60 | 94 | 15.6 | 25.2 | 0.00 | 0.00 | 0.00 | 87 | 1012.5 |
| 20260503203516 | 60 | 99 | 17.4 | 26.1 | 0.00 | 0.00 | 0.00 | 86 | 1012.4 |
| 20260503202516 | 60 | 97 | 18.2 | 27.8 | 0.00 | 0.00 | 0.00 | 86 | 1012.2 |
| 20260503201516 | 60 | 100 | 18.2 | 27.8 | 0.00 | 0.00 | 0.00 | 86 | 1012.1 |
| 20260503200516 | 61 | 102 | 17.4 | 30.4 | 0.00 | 0.00 | 0.00 | 85 | 1012.0 |
| 20260503195516 | 61 | 99 | 17.4 | 26.1 | 0.00 | 0.00 | 0.00 | 85 | 1011.9 |
| 20260503194537 | 61 | 97 | 17.4 | 26.1 | 0.00 | 0.00 | 0.00 | 85 | 1011.9 |
| 20260503193516 | 61 | 98 | 17.4 | 26.9 | 0.00 | 0.00 | 0.00 | 85 | 1011.9 |
| 20260503192516 | 61 | 105 | 17.4 | 26.1 | 0.00 | 0.00 | 0.00 | 84 | 1011.9 |
| 20260503191536 | 61 | 103 | 18.2 | 27.8 | 0.00 | 0.00 | 0.00 | 84 | 1011.8 |
| 20260503190516 | 61 | 105 | 17.4 | 27.8 | 0.00 | 0.00 | 0.00 | 84 | 1011.8 |